EW3857 Weather Reports


Display with metric or nautical units.
time (UTC)temp
F
wind
direction
speed
MPH
gust
MPH
rain 1hr
in
rain 24hr
in
rain mn
in
humidity
%
barometer
mb
20260904090915 76 264 0.0 0.0 0.00 0.00 0.00 99 1017.8
20260904090411 76 263 0.0 0.0 0.00 0.00 0.00 99 1017.8
20260904085906 76 258 0.0 0.0 0.00 0.00 0.00 99 1017.8
20260904085401 76 264 0.0 0.0 0.00 0.00 0.00 99 1017.9
20260904084856 76 264 0.0 0.0 0.00 0.00 0.00 99 1017.6
20260904084352 76 264 0.0 0.0 0.00 0.00 0.00 99 1017.8
20260904083847 76 258 0.0 0.0 0.00 0.00 0.00 99 1017.8
20260904083343 76 273 0.0 0.0 0.00 0.00 0.00 99 1018.2
20260904082839 76 273 0.0 0.0 0.00 0.00 0.00 99 1017.9
20260904082333 76 273 0.0 0.0 0.00 0.00 0.00 99 1017.8
20260904081828 76 273 0.0 0.0 0.00 0.00 0.00 99 1017.9
20260904081324 76 272 0.0 0.0 0.00 0.00 0.00 99 1017.9
20260904080820 76 272 0.0 0.0 0.00 0.00 0.00 99 1017.7
20260904080315 76 272 0.0 0.0 0.00 0.00 0.00 99 1017.8
20260904075811 76 272 0.0 0.0 0.00 0.00 0.00 99 1017.8
20260904075307 76 272 0.0 0.0 0.00 0.00 0.00 99 1017.7
20260904074805 76 268 0.0 0.0 0.00 0.00 0.00 99 1017.7
20260904074300 76 272 0.0 0.0 0.00 0.00 0.00 99 1017.7
20260904073756 76 272 0.0 0.0 0.00 0.00 0.00 99 1018.0
20260904073251 76 272 0.0 0.0 0.00 0.00 0.00 99 1017.9
20260904072748 76 313 0.0 0.0 0.00 0.00 0.00 99 1017.8
20260904072246 76 267 0.0 0.0 0.00 0.00 0.00 99 1017.7
20260904071743 76 267 0.0 0.0 0.00 0.00 0.00 99 1017.7
20260904071237 77 267 0.0 0.0 0.00 0.00 0.00 99 1017.9
20260904070732 77 270 0.0 0.0 0.00 0.00 0.00 99 1017.7
20260904070231 77 266 0.0 0.0 0.00 0.00 0.00 99 1017.7
20260904065726 77 266 0.0 0.0 0.00 0.00 0.00 98 1017.7
20260904065223 77 266 0.0 0.0 0.00 0.00 0.00 98 1017.8
20260904064722 77 266 0.0 0.0 0.00 0.00 0.00 98 1018.0
20260904064218 76 266 0.0 0.0 0.00 0.00 0.00 98 1018.0
20260904063714 76 266 0.0 0.0 0.00 0.00 0.00 98 1017.9
20260904063210 76 266 0.0 0.0 0.00 0.00 0.00 98 1017.9
20260904062706 76 266 0.0 0.0 0.00 0.00 0.00 98 1018.2
20260904062201 76 266 0.0 0.0 0.00 0.00 0.00 98 1017.9
20260904061656 76 266 0.0 0.0 0.00 0.00 0.00 98 1018.0
20260904061152 76 266 0.0 0.0 0.00 0.00 0.00 98 1018.0
20260904060649 76 266 0.0 0.0 0.00 0.00 0.00 97 1018.0
20260904060144 76 267 0.0 0.0 0.00 0.00 0.00 97 1018.3
20260904055639 76 267 0.0 0.0 0.00 0.00 0.00 97 1018.0
20260904055134 76 267 0.0 0.0 0.00 0.00 0.00 97 1017.9
20260904054629 76 267 0.0 0.0 0.00 0.00 0.00 97 1018.2
20260904054125 76 266 0.0 0.0 0.00 0.00 0.00 97 1018.2
20260904053620 76 267 0.0 0.0 0.00 0.00 0.00 97 1017.9
20260904053115 76 267 0.0 0.0 0.00 0.00 0.00 97 1018.4
20260904052612 76 267 0.0 0.0 0.00 0.00 0.00 96 1018.4
20260904052108 76 267 0.0 0.0 0.00 0.00 0.00 96 1018.0
20260904051604 76 268 0.0 0.0 0.00 0.00 0.00 96 1018.4
20260904051103 76 267 0.0 0.0 0.00 0.00 0.00 96 1018.5
20260904050559 76 267 0.0 0.0 0.00 0.00 0.00 96 1018.3
20260904050055 77 267 0.0 0.0 0.00 0.00 0.00 96 1018.2
20260904045549 77 267 0.0 0.0 0.00 0.00 0.00 95 1018.4
20260904045044 77 267 0.0 0.0 0.00 0.00 0.00 95 1018.3
20260904044540 77 266 0.0 0.0 0.00 0.00 0.00 95 1018.5
20260904044036 77 266 0.0 0.0 0.00 0.00 0.00 95 1018.4
20260904043532 77 266 0.0 0.0 0.00 0.00 0.00 95 1018.6
20260904043027 77 266 0.0 0.0 0.00 0.00 0.00 94 1018.4
20260904042524 77 266 0.0 0.0 0.00 0.00 0.00 94 1018.0
20260904042019 77 266 0.0 0.0 0.00 0.00 0.00 94 1018.4
20260904041509 77 266 0.0 0.0 0.00 0.00 0.00 94 1018.3
20260904041005 77 266 0.0 0.0 0.00 0.00 0.00 94 1017.9
20260904040459 77 266 0.0 0.0 0.00 0.00 0.00 94 1018.2
20260904035955 77 267 0.0 0.0 0.00 0.00 0.00 94 1018.5
20260904035451 77 267 0.0 0.0 0.00 0.00 0.00 94 1018.4
20260904034950 77 267 0.0 0.0 0.00 0.00 0.00 94 1018.5
20260904034445 77 267 0.0 0.0 0.00 0.00 0.00 94 1018.5
20260904033941 77 267 0.0 0.0 0.00 0.00 0.00 93 1018.6
20260904033437 77 267 0.0 0.0 0.00 0.00 0.00 93 1018.5
20260904032933 77 267 0.0 0.0 0.00 0.00 0.00 93 1018.4
20260904032428 78 267 0.0 0.0 0.00 0.00 0.00 93 1018.5
20260904031928 78 267 0.0 0.0 0.00 0.00 0.00 92 1018.6
20260904031423 78 269 0.0 0.0 0.00 0.00 0.00 92 1018.6
20260904030919 78 272 0.0 0.0 0.00 0.00 0.00 92 1018.6
20260904030419 78 272 0.0 0.0 0.00 0.00 0.00 92 1018.9
20260904025915 78 272 0.0 0.0 0.00 0.00 0.00 92 1018.7
20260904025410 78 272 0.0 0.0 0.00 0.00 0.00 92 1018.7
20260904024905 78 272 0.0 0.0 0.00 0.00 0.00 92 1018.7
20260904024400 78 272 0.0 0.0 0.00 0.00 0.00 91 1019.1
20260904023856 78 272 0.0 0.0 0.00 0.00 0.00 91 1018.7
20260904023352 78 272 0.0 0.0 0.00 0.00 0.00 91 1018.9
20260904022851 79 273 0.0 0.0 0.00 0.00 0.00 91 1018.6
20260904022348 78 273 0.0 0.0 0.00 0.00 0.00 90 1018.7
20260904021844 79 273 0.0 0.0 0.00 0.00 0.00 91 1018.8
20260904021339 79 271 0.0 0.0 0.00 0.00 0.00 89 1018.4
20260904020834 79 271 0.0 0.0 0.00 0.00 0.00 89 1018.3
20260904020329 79 271 0.0 0.0 0.00 0.00 0.00 88 1018.4
20260904015828 79 270 0.0 0.0 0.00 0.00 0.00 88 1018.2
20260904015323 79 270 0.0 0.0 0.00 0.00 0.00 89 1018.2
20260904014822 79 270 0.0 0.0 0.00 0.00 0.00 89 1018.3
20260904014317 79 271 0.0 1.0 0.00 0.00 0.00 89 1018.2
20260904013813 80 270 0.0 0.0 0.00 0.00 0.00 89 1018.2
20260904013309 80 269 0.0 1.0 0.00 0.00 0.00 89 1018.0
20260904012805 80 318 1.0 1.0 0.00 0.00 0.00 88 1018.0
20260904012259 80 271 0.0 0.0 0.00 0.00 0.00 88 1018.2
20260904011758 80 270 0.0 0.0 0.00 0.00 0.00 88 1017.9
20260904011253 80 272 0.0 0.0 0.00 0.00 0.00 87 1017.9
20260904010748 81 272 0.0 0.0 0.00 0.00 0.00 86 1017.5
20260904010244 81 271 0.0 0.0 0.00 0.00 0.00 86 1017.7
20260904005739 81 271 0.0 0.0 0.00 0.00 0.00 86 1017.4
20260904005235 81 272 0.0 0.0 0.00 0.00 0.00 85 1017.8
20260904004730 81 272 0.0 0.0 0.00 0.00 0.00 85 1017.5
20260904004225 82 271 0.0 0.0 0.00 0.00 0.00 84 1017.4
20260904003720 82 270 0.0 0.0 0.00 0.00 0.00 84 1017.5
20260904003217 82 270 0.0 0.0 0.00 0.00 0.00 83 1017.5
20260904002712 82 270 0.0 0.0 0.00 0.00 0.00 83 1017.4
20260904002208 82 270 1.0 1.0 0.00 0.00 0.00 82 1017.5
20260904001703 82 251 0.0 0.0 0.00 0.00 0.00 81 1017.5
20260904001202 83 249 0.0 0.0 0.00 0.00 0.00 82 1017.3
20260904000657 84 251 1.0 1.0 0.00 0.00 0.00 79 1017.4
20260904000152 84 259 0.0 0.0 0.00 0.00 0.00 78 1017.1
20260903235651 84 258 0.0 0.0 0.00 0.00 0.00 77 1017.3
20260903235148 84 260 0.0 0.0 0.00 0.00 0.00 77 1017.3
20260903234642 84 260 0.0 0.0 0.00 0.00 0.00 77 1017.2
20260903234139 85 259 0.0 0.0 0.00 0.00 0.00 80 1017.1
20260903233635 86 254 0.0 1.0 0.00 0.00 0.00 75 1017.2
20260903233130 86 270 0.0 1.0 0.00 0.00 0.00 72 1017.2
20260903232624 87 268 0.0 1.0 0.00 0.00 0.00 72 1017.2
20260903232120 87 261 0.0 0.0 0.00 0.00 0.00 71 1017.1
20260903231608 87 39 1.0 1.0 0.00 0.00 0.00 73 1017.3
20260903231103 87 23 3.0 5.0 0.00 0.00 0.00 73 1017.4
20260903230559 86 357 5.0 7.0 0.00 0.00 0.00 72 1017.3
20260903230057 86 35 7.0 8.0 0.00 0.00 0.00 72 1017.4
20260903225554 86 269 0.0 0.0 0.00 0.00 0.00 69 1017.4
20260903225051 86 240 3.0 3.0 0.00 0.00 0.00 67 1017.2
20260903224546 88 147 8.0 9.0 0.00 0.00 0.00 70 1017.3
20260903224042 88 143 11.0 13.0 0.00 0.00 0.00 66 1017.4
20260903223537 91 129 15.0 20.0 0.00 0.00 0.00 59 1017.5
20260903223036 90 119 0.0 0.0 0.00 0.00 0.00 64 1017.4
20260903222531 90 233 0.0 0.0 0.00 0.00 0.00 68 1017.0
20260903222030 90 245 0.0 0.0 0.00 0.00 0.00 68 1017.0
20260903221526 91 205 0.0 0.0 0.00 0.00 0.00 66 1016.6
20260903221022 93 254 0.0 0.0 0.00 0.00 0.00 58 1017.1
20260903220521 94 262 0.0 0.0 0.00 0.00 0.00 58 1017.2
20260903220016 94 249 0.0 0.0 0.00 0.00 0.00 54 1016.9
20260903215516 95 281 0.0 0.0 0.00 0.00 0.00 53 1016.5
20260903215015 95 281 0.0 0.0 0.00 0.00 0.00 52 1016.4
20260903214510 94 281 0.0 0.0 0.00 0.00 0.00 52 1016.7
20260903214009 95 282 0.0 0.0 0.00 0.00 0.00 53 1016.5
20260903213505 94 276 0.0 0.0 0.00 0.00 0.00 55 1016.5
20260903213001 94 278 0.0 0.0 0.00 0.00 0.00 56 1016.9
20260903212456 94 226 0.0 0.0 0.00 0.00 0.00 55 1016.9
20260903211951 94 250 0.0 0.0 0.00 0.00 0.00 56 1016.8
20260903211447 94 206 0.0 0.0 0.00 0.00 0.00 56 1016.7
20260903210943 95 217 0.0 0.0 0.00 0.00 0.00 56 1016.7
20260903210442 95 246 0.0 0.0 0.00 0.00 0.00 53 1016.5
20260903205938 96 221 0.0 0.0 0.00 0.00 0.00 53 1016.7
20260903205432 96 266 0.0 0.0 0.00 0.00 0.00 54 1016.9
20260903204926 96 243 0.0 0.0 0.00 0.00 0.00 51 1016.9
20260903204423 96 299 0.0 0.0 0.00 0.00 0.00 53 1016.9
20260903203919 96 278 0.0 0.0 0.00 0.00 0.00 52 1017.1
20260903203414 96 276 0.0 0.0 0.00 0.00 0.00 53 1017.2
20260903202913 96 287 0.0 0.0 0.00 0.00 0.00 54 1017.0
20260903202410 96 240 0.0 0.0 0.00 0.00 0.00 53 1017.4
20260903201909 94 256 0.0 0.0 0.00 0.00 0.00 56 1017.3
20260903201405 94 213 0.0 0.0 0.00 0.00 0.00 56 1017.5
20260903200904 94 154 0.0 0.0 0.00 0.00 0.00 59 1017.7
20260903200359 93 233 0.0 0.0 0.00 0.00 0.00 59 1017.7
20260903195854 93 221 0.0 0.0 0.00 0.00 0.00 58 1017.8
20260903195350 94 236 0.0 0.0 0.00 0.00 0.00 60 1018.0
20260903194844 95 251 0.0 0.0 0.00 0.00 0.00 59 1017.8
20260903194340 95 258 0.0 0.0 0.00 0.00 0.00 58 1018.0
20260903193836 93 274 0.0 0.0 0.00 0.00 0.00 56 1018.3
20260903193332 93 326 0.0 0.0 0.00 0.00 0.00 58 1018.3
20260903192827 94 6 0.0 0.0 0.00 0.00 0.00 58 1018.2
20260903192322 93 55 0.0 0.0 0.00 0.00 0.00 61 1018.2
20260903191818 94 39 0.0 0.0 0.00 0.00 0.00 56 1018.4
20260903191314 95 277 0.0 0.0 0.00 0.00 0.00 55 1018.5
20260903190808 95 162 0.0 0.0 0.00 0.00 0.00 56 1018.4
20260903190302 95 269 0.0 0.0 0.00 0.00 0.00 56 1018.4
20260903185756 95 312 0.0 0.0 0.00 0.00 0.00 55 1018.4
20260903185251 95 248 0.0 0.0 0.00 0.00 0.00 54 1018.6
20260903184748 96 219 0.0 0.0 0.00 0.00 0.00 53 1018.8
20260903184243 96 278 0.0 0.0 0.00 0.00 0.00 52 1018.6
20260903183738 96 229 0.0 0.0 0.00 0.00 0.00 53 1018.8
20260903183233 95 268 0.0 0.0 0.00 0.00 0.00 54 1018.8
20260903182732 95 221 0.0 0.0 0.00 0.00 0.00 55 1018.7
20260903182227 95 309 0.0 0.0 0.00 0.00 0.00 53 1018.9
20260903181726 95 254 0.0 0.0 0.00 0.00 0.00 52 1018.8
20260903181221 95 280 0.0 0.0 0.00 0.00 0.00 57 1018.8
20260903180716 95 351 0.0 0.0 0.00 0.00 0.00 55 1019.0
20260903180210 95 333 0.0 0.0 0.00 0.00 0.00 54 1019.0
20260903175709 95 285 0.0 0.0 0.00 0.00 0.00 54 1019.0
20260903175208 95 280 0.0 0.0 0.00 0.00 0.00 55 1019.4
20260903174703 95 272 0.0 0.0 0.00 0.00 0.00 55 1019.0
20260903174157 95 279 0.0 0.0 0.00 0.00 0.00 54 1019.3
20260903173652 94 277 0.0 0.0 0.00 0.00 0.00 60 1019.3
20260903173149 93 278 0.0 0.0 0.00 0.00 0.00 60 1019.4
20260903172643 94 289 0.0 0.0 0.00 0.00 0.00 62 1019.4
20260903172139 93 248 0.0 0.0 0.00 0.00 0.00 62 1019.6
20260903171638 93 224 0.0 0.0 0.00 0.00 0.00 64 1019.7
20260903171135 92 246 0.0 0.0 0.00 0.00 0.00 67 1019.6
20260903170633 92 227 0.0 0.0 0.00 0.00 0.00 67 1019.9
20260903170129 92 177 0.0 0.0 0.00 0.00 0.00 66 1020.2
20260903165627 92 226 0.0 0.0 0.00 0.00 0.00 66 1020.0
20260903165121 92 213 0.0 0.0 0.00 0.00 0.00 66 1020.1
20260903164611 92 236 0.0 0.0 0.00 0.00 0.00 63 1020.4
20260903164106 92 228 0.0 0.0 0.00 0.00 0.00 63 1019.9
20260903163600 92 244 0.0 0.0 0.00 0.00 0.00 63 1020.3
20260903163056 92 251 0.0 0.0 0.00 0.00 0.00 62 1020.1
20260903162553 92 251 0.0 0.0 0.00 0.00 0.00 61 1020.3
20260903162048 91 284 0.0 0.0 0.00 0.00 0.00 60 1020.4
20260903161543 92 290 0.0 0.0 0.00 0.00 0.00 62 1020.5
20260903161034 90 283 0.0 0.0 0.00 0.00 0.00 66 1020.6
20260903160533 89 287 0.0 0.0 0.00 0.00 0.00 65 1020.4
20260903160028 89 283 0.0 0.0 0.00 0.00 0.00 66 1020.4
20260903155526 88 298 0.0 0.0 0.00 0.00 0.00 67 1020.3
20260903155022 88 337 0.0 0.0 0.00 0.00 0.00 68 1020.4
20260903154518 88 346 0.0 0.0 0.00 0.00 0.00 73 1020.3
20260903154014 87 291 0.0 0.0 0.00 0.00 0.00 76 1020.5
20260903153509 87 293 0.0 0.0 0.00 0.00 0.00 79 1020.4
20260903153005 86 288 0.0 0.0 0.00 0.00 0.00 80 1020.5
20260903152501 86 9 0.0 0.0 0.00 0.00 0.00 81 1020.3
20260903151957 85 296 0.0 0.0 0.00 0.00 0.00 81 1020.6
20260903151456 84 289 0.0 0.0 0.00 0.00 0.00 82 1020.4
20260903150951 84 307 0.0 0.0 0.00 0.00 0.00 83 1020.4
20260903150451 84 325 0.0 0.0 0.00 0.00 0.00 83 1020.3
20260903145945 84 321 0.0 0.0 0.00 0.00 0.00 83 1020.4
20260903145441 84 316 0.0 0.0 0.00 0.00 0.00 84 1020.3
20260903144936 83 33 0.0 0.0 0.00 0.00 0.00 84 1020.3
20260903144435 83 321 0.0 0.0 0.00 0.00 0.00 84 1020.2
20260903143931 83 321 0.0 0.0 0.00 0.00 0.00 85 1020.4
20260903143427 83 6 0.0 0.0 0.00 0.00 0.00 85 1020.2
20260903142923 82 6 0.0 0.0 0.00 0.00 0.00 86 1020.4
20260903142418 83 12 0.0 0.0 0.00 0.00 0.00 87 1020.4
20260903141914 82 2 0.0 0.0 0.00 0.00 0.00 87 1020.3
20260903141410 82 20 0.0 0.0 0.00 0.00 0.00 89 1020.4
20260903140905 82 29 0.0 0.0 0.00 0.00 0.00 89 1020.3
20260903140355 82 60 0.0 0.0 0.00 0.00 0.00 90 1020.3
20260903135850 81 62 0.0 0.0 0.00 0.00 0.00 90 1020.4
20260903135345 81 329 0.0 0.0 0.00 0.00 0.00 92 1020.3
20260903134844 81 7 0.0 0.0 0.00 0.00 0.00 92 1020.4
20260903134339 81 354 0.0 0.0 0.00 0.00 0.00 92 1020.4
20260903133837 81 25 0.0 0.0 0.00 0.00 0.00 93 1020.4
20260903133334 81 8 0.0 0.0 0.00 0.00 0.00 93 1020.5
20260903132828 80 13 0.0 0.0 0.00 0.00 0.00 93 1020.3
20260903132324 80 0 0.0 0.0 0.00 0.00 0.00 93 1020.4
20260903131819 80 335 0.0 0.0 0.00 0.00 0.00 93 1020.2
20260903131319 80 2 0.0 0.0 0.00 0.00 0.00 93 1020.5
20260903130813 80 6 0.0 0.0 0.00 0.00 0.00 93 1020.2
20260903130313 80 341 0.0 0.0 0.00 0.00 0.00 94 1020.2
20260903125811 80 26 0.0 0.0 0.00 0.00 0.00 93 1020.2
20260903125307 80 0 0.0 0.0 0.00 0.00 0.00 93 1020.4
20260903124806 80 348 0.0 0.0 0.00 0.00 0.00 93 1020.2
20260903124302 80 344 0.0 0.0 0.00 0.00 0.00 95 1020.2
20260903123800 80 10 0.0 0.0 0.00 0.00 0.00 95 1020.2
20260903123300 80 1 0.0 0.0 0.00 0.00 0.00 95 1020.5
20260903122758 79 341 0.0 0.0 0.00 0.00 0.00 95 1020.4
20260903122253 79 331 0.0 0.0 0.00 0.00 0.00 96 1020.3
20260903121751 79 348 0.0 0.0 0.00 0.00 0.00 97 1020.2
20260903121247 78 282 0.0 0.0 0.00 0.00 0.00 97 1020.2
20260903120742 78 273 0.0 0.0 0.00 0.00 0.00 98 1020.2
20260903120236 77 278 0.0 0.0 0.00 0.00 0.00 98 1020.2
20260903115734 77 278 0.0 0.0 0.00 0.00 0.00 98 1020.2
20260903115230 77 283 0.0 0.0 0.00 0.00 0.00 99 1020.3
20260903114725 77 285 0.0 0.0 0.00 0.00 0.00 99 1020.2
20260903114220 77 302 0.0 0.0 0.00 0.00 0.00 99 1020.0
20260903113715 77 277 0.0 0.0 0.00 0.00 0.00 99 1020.0
20260903113211 76 189 0.0 0.0 0.00 0.00 0.00 99 1019.9
20260903112707 76 189 0.0 0.0 0.00 0.00 0.00 99 1019.9
20260903112203 76 190 0.0 0.0 0.00 0.00 0.00 99 1019.8
20260903111701 76 189 0.0 0.0 0.00 0.00 0.00 99 1019.8
20260903111157 76 189 0.0 0.0 0.00 0.00 0.00 99 1019.9
20260903110653 76 189 0.0 0.0 0.00 0.00 0.00 99 1019.9
20260903110148 76 189 0.0 0.0 0.00 0.00 0.00 99 1019.6
20260903105642 76 190 0.0 0.0 0.00 0.00 0.00 99 1019.6
20260903105137 76 191 0.0 0.0 0.00 0.00 0.00 99 1019.7
20260903104637 76 190 0.0 0.0 0.00 0.00 0.00 99 1019.7
20260903104133 77 190 0.0 0.0 0.00 0.00 0.00 99 1019.6
20260903103628 77 189 0.0 0.0 0.00 0.00 0.00 99 1019.7
20260903103125 77 189 0.0 0.0 0.00 0.00 0.00 99 1019.6
20260903102620 77 189 0.0 0.0 0.00 0.00 0.00 99 1019.5
20260903102118 77 190 0.0 0.0 0.00 0.00 0.00 99 1019.5
20260903101613 77 191 0.0 0.0 0.00 0.00 0.00 99 1019.4
20260903101108 77 189 0.0 0.0 0.00 0.00 0.00 99 1019.3
20260903100603 77 190 0.0 0.0 0.00 0.00 0.00 99 1019.3
20260903095600 77 188 0.0 0.0 0.00 0.00 0.00 99 1019.3
20260903095055 77 190 0.0 0.0 0.00 0.00 0.00 99 1019.4
20260903094554 77 189 0.0 0.0 0.00 0.00 0.00 99 1019.4
20260903094045 77 189 0.0 0.0 0.00 0.00 0.00 99 1019.4
20260903093545 77 191 0.0 0.0 0.00 0.00 0.00 99 1019.4
20260903093040 77 190 0.0 0.0 0.00 0.00 0.00 99 1019.3
20260903092539 77 190 0.0 0.0 0.00 0.00 0.00 99 1019.5
20260903092034 77 188 0.0 0.0 0.00 0.00 0.00 99 1019.4
20260903091532 77 190 0.0 0.0 0.00 0.00 0.00 99 1019.3
20260903091027 77 187 0.0 0.0 0.00 0.00 0.00 99 1019.3